Year,Month,Day,Hour,Minute,Value (Times are PST for temperature in C)
2013,08,18,00,00,15.80
2013,08,18,00,01,15.80
2013,08,18,00,02,15.80
2013,08,18,00,03,15.70
2013,08,18,00,04,15.70
2013,08,18,00,05,15.70
2013,08,18,00,06,15.70
2013,08,18,00,07,15.70
2013,08,18,00,08,15.70
2013,08,18,00,09,15.70
2013,08,18,00,10,15.70
2013,08,18,00,11,15.70
2013,08,18,00,12,15.60
2013,08,18,00,13,15.60
2013,08,18,00,14,15.60
2013,08,18,00,15,15.60
2013,08,18,00,16,15.60
2013,08,18,00,17,15.60
2013,08,18,00,18,15.60
2013,08,18,00,19,15.60
2013,08,18,00,20,15.60
2013,08,18,00,21,15.60
2013,08,18,00,22,15.60
2013,08,18,00,23,15.60
2013,08,18,00,24,15.60
2013,08,18,00,25,15.50
2013,08,18,00,26,15.50
2013,08,18,00,27,15.50
2013,08,18,00,28,15.50
2013,08,18,00,29,15.50
2013,08,18,00,30,15.50
2013,08,18,00,31,15.50
2013,08,18,00,32,15.50
2013,08,18,00,33,15.50
2013,08,18,00,34,15.50
2013,08,18,00,35,15.50
2013,08,18,00,36,15.50
2013,08,18,00,37,15.50
2013,08,18,00,38,15.50
2013,08,18,00,39,15.50
2013,08,18,00,40,15.50
2013,08,18,00,41,15.50
2013,08,18,00,42,15.40
2013,08,18,00,43,15.40
2013,08,18,00,44,15.40
2013,08,18,00,45,15.40
2013,08,18,00,46,15.40
2013,08,18,00,47,15.40
2013,08,18,00,48,15.40
2013,08,18,00,49,15.40
2013,08,18,00,50,15.30
2013,08,18,00,51,15.30
2013,08,18,00,52,15.30
2013,08,18,00,53,15.30
2013,08,18,00,54,15.30
2013,08,18,00,55,15.30
2013,08,18,00,56,15.20
2013,08,18,00,57,15.20
2013,08,18,00,58,15.20
2013,08,18,00,59,15.20
2013,08,18,01,00,15.10
2013,08,18,01,01,15.10
2013,08,18,01,02,15.10
2013,08,18,01,03,15.00
2013,08,18,01,04,15.00
2013,08,18,01,05,15.00
2013,08,18,01,06,15.00
2013,08,18,01,07,15.00
2013,08,18,01,08,15.00
2013,08,18,01,09,15.00
2013,08,18,01,10,15.00
2013,08,18,01,11,15.00
2013,08,18,01,12,15.00
2013,08,18,01,13,15.00
2013,08,18,01,14,15.00
2013,08,18,01,15,15.00
2013,08,18,01,16,15.00
2013,08,18,01,17,15.00
2013,08,18,01,18,15.00
2013,08,18,01,19,15.00
2013,08,18,01,20,14.90
2013,08,18,01,21,14.90
2013,08,18,01,22,14.90
2013,08,18,01,23,14.80
2013,08,18,01,24,14.80
2013,08,18,01,25,14.80
2013,08,18,01,26,14.80
2013,08,18,01,27,14.80
2013,08,18,01,28,14.80
2013,08,18,01,29,14.70
2013,08,18,01,30,14.70
2013,08,18,01,31,14.70
2013,08,18,01,32,14.70
2013,08,18,01,33,14.70
2013,08,18,01,34,14.70
2013,08,18,01,35,14.60
2013,08,18,01,36,14.60
2013,08,18,01,37,14.60
2013,08,18,01,38,14.60
2013,08,18,01,39,14.60
2013,08,18,01,40,14.60
2013,08,18,01,41,14.60
2013,08,18,01,42,14.60
2013,08,18,01,43,14.50
2013,08,18,01,44,14.50
2013,08,18,01,45,14.50
2013,08,18,01,46,14.50
2013,08,18,01,47,14.40
2013,08,18,01,48,14.40
2013,08,18,01,49,14.40
2013,08,18,01,50,14.40
2013,08,18,01,51,14.40
2013,08,18,01,52,14.40
2013,08,18,01,53,14.30
2013,08,18,01,54,14.30
2013,08,18,01,55,14.30
2013,08,18,01,56,14.30
2013,08,18,01,57,14.30
2013,08,18,01,58,14.30
2013,08,18,01,59,14.30
2013,08,18,02,00,14.30
2013,08,18,02,01,14.30
2013,08,18,02,02,14.30
2013,08,18,02,03,14.30
2013,08,18,02,04,14.30
2013,08,18,02,05,14.30
2013,08,18,02,06,14.30
2013,08,18,02,07,14.30
2013,08,18,02,08,14.20
2013,08,18,02,09,14.20
2013,08,18,02,10,14.20
2013,08,18,02,11,14.20
2013,08,18,02,12,14.20
2013,08,18,02,13,14.20
2013,08,18,02,14,14.20
2013,08,18,02,15,14.20
2013,08,18,02,16,14.20
2013,08,18,02,17,14.20
2013,08,18,02,18,14.20
2013,08,18,02,19,14.20
2013,08,18,02,20,14.20
2013,08,18,02,21,14.20
2013,08,18,02,22,14.20
2013,08,18,02,23,14.20
2013,08,18,02,24,14.20
2013,08,18,02,25,14.20
2013,08,18,02,26,14.20
2013,08,18,02,27,14.20
2013,08,18,02,28,14.20
2013,08,18,02,29,14.20
2013,08,18,02,30,14.20
2013,08,18,02,31,14.20
2013,08,18,02,32,14.20
2013,08,18,02,33,14.20
2013,08,18,02,34,14.20
2013,08,18,02,35,14.20
2013,08,18,02,36,14.20
2013,08,18,02,37,14.20
2013,08,18,02,38,14.20
2013,08,18,02,39,14.20
2013,08,18,02,40,14.30
2013,08,18,02,41,14.30
2013,08,18,02,42,14.30
2013,08,18,02,43,14.30
2013,08,18,02,44,14.30
2013,08,18,02,45,14.30
2013,08,18,02,46,14.30
2013,08,18,02,47,14.30
2013,08,18,02,48,14.30
2013,08,18,02,49,14.30
2013,08,18,02,50,14.30
2013,08,18,02,51,14.30
2013,08,18,02,52,14.30
2013,08,18,02,53,14.30
2013,08,18,02,54,14.40
2013,08,18,02,55,14.40
2013,08,18,02,56,14.40
2013,08,18,02,57,14.40
2013,08,18,02,58,14.40
2013,08,18,02,59,14.40
2013,08,18,03,00,14.40
2013,08,18,03,01,14.40
2013,08,18,03,02,14.40
2013,08,18,03,06,14.40
2013,08,18,03,07,14.50
2013,08,18,03,08,14.50
2013,08,18,03,09,14.50
2013,08,18,03,10,14.50
2013,08,18,03,11,14.50
2013,08,18,03,12,14.50
2013,08,18,03,13,14.50
2013,08,18,03,14,14.50
2013,08,18,03,15,14.50
2013,08,18,03,16,14.50
2013,08,18,03,17,14.50
2013,08,18,03,18,14.50
2013,08,18,03,19,14.50
2013,08,18,03,20,14.50
2013,08,18,03,21,14.50
2013,08,18,03,22,14.60
2013,08,18,03,23,14.60
2013,08,18,03,24,14.60
2013,08,18,03,25,14.60
2013,08,18,03,26,14.60
2013,08,18,03,27,14.60
2013,08,18,03,28,14.60
2013,08,18,03,29,14.60
2013,08,18,03,30,14.60
2013,08,18,03,31,14.60
2013,08,18,03,32,14.60
2013,08,18,03,33,14.50
2013,08,18,03,34,14.50
2013,08,18,03,35,14.50
2013,08,18,03,36,14.50
2013,08,18,03,37,14.50
2013,08,18,03,38,14.50
2013,08,18,03,39,14.50
2013,08,18,03,40,14.50
2013,08,18,03,41,14.50
2013,08,18,03,42,14.50
2013,08,18,03,43,14.40
2013,08,18,03,44,14.40
2013,08,18,03,45,14.40
2013,08,18,03,46,14.40
2013,08,18,03,47,14.40
2013,08,18,03,48,14.40
2013,08,18,03,49,14.40
2013,08,18,03,50,14.40
2013,08,18,03,51,14.30
2013,08,18,03,52,14.30
2013,08,18,03,53,14.30
2013,08,18,03,54,14.30
2013,08,18,03,55,14.30
2013,08,18,03,56,14.30
2013,08,18,03,57,14.30
2013,08,18,03,58,14.20
2013,08,18,03,59,14.20
2013,08,18,04,00,14.20
2013,08,18,04,01,14.20
2013,08,18,04,02,14.20
2013,08,18,04,03,14.20
2013,08,18,04,04,14.20
2013,08,18,04,05,14.20
2013,08,18,04,06,14.20
2013,08,18,04,07,14.20
2013,08,18,04,08,14.20
2013,08,18,04,09,14.10
2013,08,18,04,10,14.10
2013,08,18,04,11,14.10
2013,08,18,04,12,14.10
2013,08,18,04,13,14.10
2013,08,18,04,14,14.10
2013,08,18,04,15,14.10
2013,08,18,04,16,14.10
2013,08,18,04,17,14.10
2013,08,18,04,18,14.10
2013,08,18,04,19,14.10
2013,08,18,04,20,14.00
2013,08,18,04,21,14.00
2013,08,18,04,22,14.00
2013,08,18,04,23,14.00
2013,08,18,04,24,14.00
2013,08,18,04,25,14.00
2013,08,18,04,26,13.90
2013,08,18,04,27,13.90
2013,08,18,04,28,13.90
2013,08,18,04,29,13.90
2013,08,18,04,30,13.90
2013,08,18,04,31,13.90
2013,08,18,04,32,13.90
2013,08,18,04,33,13.90
2013,08,18,04,34,13.90
2013,08,18,04,35,13.90
2013,08,18,04,36,13.90
2013,08,18,04,37,13.90
2013,08,18,04,38,13.90
2013,08,18,04,39,13.90
2013,08,18,04,40,13.90
2013,08,18,04,41,13.90
2013,08,18,04,42,13.90
2013,08,18,04,43,13.90
2013,08,18,04,44,13.90
2013,08,18,04,45,13.80
2013,08,18,04,46,13.80
2013,08,18,04,47,13.80
2013,08,18,04,48,13.80
2013,08,18,04,49,13.80
2013,08,18,04,50,13.80
2013,08,18,04,51,13.80
2013,08,18,04,52,13.80
2013,08,18,04,53,13.70
2013,08,18,04,54,13.70
2013,08,18,04,55,13.70
2013,08,18,04,56,13.70
2013,08,18,04,57,13.70
2013,08,18,04,58,13.70
2013,08,18,04,59,13.70
2013,08,18,05,00,13.70
2013,08,18,05,01,13.70
2013,08,18,05,02,13.70
2013,08,18,05,03,13.70
2013,08,18,05,04,13.60
2013,08,18,05,05,13.60
2013,08,18,05,06,13.60
2013,08,18,05,07,13.60
2013,08,18,05,08,13.60
2013,08,18,05,09,13.60
2013,08,18,05,10,13.60
2013,08,18,05,11,13.70
2013,08,18,05,12,13.70
2013,08,18,05,13,13.70
2013,08,18,05,14,13.70
2013,08,18,05,15,13.70
2013,08,18,05,16,13.70
2013,08,18,05,17,13.70
2013,08,18,05,18,13.80
2013,08,18,05,19,13.80
2013,08,18,05,20,13.80
2013,08,18,05,21,13.80
2013,08,18,05,22,13.80
2013,08,18,05,23,13.80
2013,08,18,05,24,13.80
2013,08,18,05,25,13.80
2013,08,18,05,26,13.80
2013,08,18,05,27,13.80
2013,08,18,05,28,13.80
2013,08,18,05,29,13.80
2013,08,18,05,30,13.80
2013,08,18,05,31,13.80
2013,08,18,05,32,13.80
2013,08,18,05,33,13.90
2013,08,18,05,34,13.80
2013,08,18,05,35,13.90
2013,08,18,05,36,13.90
2013,08,18,05,37,13.90
2013,08,18,05,38,13.90
2013,08,18,05,39,13.90
2013,08,18,05,40,13.90
2013,08,18,05,41,13.90
2013,08,18,05,42,13.90
2013,08,18,05,43,13.90
2013,08,18,05,44,14.00
2013,08,18,05,45,14.00
2013,08,18,05,46,14.00
2013,08,18,05,47,14.00
2013,08,18,05,48,14.00
2013,08,18,05,49,14.00
2013,08,18,05,50,14.00
2013,08,18,05,51,14.10
2013,08,18,05,52,14.10
2013,08,18,05,53,14.10
2013,08,18,05,54,14.10
2013,08,18,05,55,14.10
2013,08,18,05,56,14.10
2013,08,18,05,57,14.10
2013,08,18,05,58,14.10
2013,08,18,05,59,14.10
2013,08,18,06,00,14.10
2013,08,18,06,01,14.20
2013,08,18,06,02,14.20
2013,08,18,06,03,14.20
2013,08,18,06,04,14.20
2013,08,18,06,05,14.20
2013,08,18,06,06,14.20
2013,08,18,06,07,14.20
2013,08,18,06,08,14.20
2013,08,18,06,09,14.30
2013,08,18,06,10,14.20
2013,08,18,06,11,14.20
2013,08,18,06,12,14.20
2013,08,18,06,13,14.20
2013,08,18,06,14,14.20
2013,08,18,06,15,14.20
2013,08,18,06,16,14.20
2013,08,18,06,17,14.20
2013,08,18,06,18,14.20
2013,08,18,06,19,14.20
2013,08,18,06,20,14.20
2013,08,18,06,21,14.20
2013,08,18,06,22,14.20
2013,08,18,06,23,14.20
2013,08,18,06,24,14.20
2013,08,18,06,25,14.20
2013,08,18,06,26,14.20
2013,08,18,06,27,14.10
2013,08,18,06,28,14.10
2013,08,18,06,29,14.10
2013,08,18,06,30,14.10
2013,08,18,06,31,14.10
2013,08,18,06,32,14.10
2013,08,18,06,33,14.10
2013,08,18,06,34,14.10
2013,08,18,06,35,14.10
2013,08,18,06,36,14.10
2013,08,18,06,37,14.10
2013,08,18,06,38,14.10
2013,08,18,06,39,14.10
2013,08,18,06,40,14.10
2013,08,18,06,41,14.10
2013,08,18,06,42,14.10
2013,08,18,06,43,14.10
2013,08,18,06,44,14.10
2013,08,18,06,45,14.10
2013,08,18,06,46,14.10
2013,08,18,06,47,14.10
2013,08,18,06,48,14.10
2013,08,18,06,49,14.10
2013,08,18,06,50,14.10
2013,08,18,06,51,14.10
2013,08,18,06,52,14.20
2013,08,18,06,53,14.20
2013,08,18,06,54,14.20
2013,08,18,06,55,14.20
2013,08,18,06,56,14.20
2013,08,18,06,57,14.20
2013,08,18,06,58,14.20
2013,08,18,06,59,14.30
2013,08,18,07,00,14.30
2013,08,18,07,01,14.30
2013,08,18,07,02,14.30
2013,08,18,07,03,14.30
2013,08,18,07,04,14.30
2013,08,18,07,05,14.30
2013,08,18,07,06,14.40
2013,08,18,07,07,14.40
2013,08,18,07,08,14.40
2013,08,18,07,09,14.40
2013,08,18,07,10,14.40
2013,08,18,07,11,14.40
2013,08,18,07,12,14.50
2013,08,18,07,13,14.50
2013,08,18,07,14,14.50
2013,08,18,07,15,14.50
2013,08,18,07,16,14.50
2013,08,18,07,17,14.60
2013,08,18,07,18,14.60
2013,08,18,07,19,14.60
2013,08,18,07,20,14.60
2013,08,18,07,21,14.60
2013,08,18,07,22,14.60
2013,08,18,07,23,14.60
2013,08,18,07,24,14.60
2013,08,18,07,25,14.60
2013,08,18,07,26,14.60
2013,08,18,07,27,14.60
2013,08,18,07,28,14.60
2013,08,18,07,29,14.60
2013,08,18,07,30,14.60
2013,08,18,07,31,14.60
2013,08,18,07,32,14.70
2013,08,18,07,33,14.70
2013,08,18,07,34,14.70
2013,08,18,07,35,14.70
2013,08,18,07,36,14.70
2013,08,18,07,37,14.70
2013,08,18,07,38,14.70
2013,08,18,07,39,14.70
2013,08,18,07,40,14.70
2013,08,18,07,41,14.70
2013,08,18,07,42,14.80
2013,08,18,07,43,14.80
2013,08,18,07,44,14.80
2013,08,18,07,45,14.80
2013,08,18,07,46,14.80
2013,08,18,07,47,14.80
2013,08,18,07,48,14.80
2013,08,18,07,49,14.80
2013,08,18,07,50,14.80
2013,08,18,07,51,14.90
2013,08,18,07,52,14.90
2013,08,18,07,53,14.90
2013,08,18,07,54,15.00
2013,08,18,07,55,15.00
2013,08,18,07,56,15.00
2013,08,18,07,57,15.00
2013,08,18,07,58,15.00
2013,08,18,07,59,15.00
2013,08,18,08,00,15.00
2013,08,18,08,01,15.00
2013,08,18,08,02,15.00
2013,08,18,08,03,15.00
2013,08,18,08,04,15.00
2013,08,18,08,05,15.00
2013,08,18,08,06,15.00
2013,08,18,08,07,15.10
2013,08,18,08,08,15.10
2013,08,18,08,09,15.20
2013,08,18,08,10,15.20
2013,08,18,08,11,15.30
2013,08,18,08,12,15.40
2013,08,18,08,13,15.40
2013,08,18,08,14,15.50
2013,08,18,08,15,15.70
2013,08,18,08,16,15.80
2013,08,18,08,17,15.90
2013,08,18,08,18,16.10
2013,08,18,08,19,16.20
2013,08,18,08,20,16.40
2013,08,18,08,21,16.50
2013,08,18,08,22,16.60
2013,08,18,08,23,16.70
2013,08,18,08,24,16.80
2013,08,18,08,25,16.90
2013,08,18,08,26,17.00
2013,08,18,08,27,17.10
2013,08,18,08,28,17.10
2013,08,18,08,29,17.20
2013,08,18,08,30,17.20
2013,08,18,08,31,17.30
2013,08,18,08,32,17.30
2013,08,18,08,33,17.30
2013,08,18,08,34,17.30
2013,08,18,08,35,17.40
2013,08,18,08,36,17.40
2013,08,18,08,37,17.50
2013,08,18,08,38,17.50
2013,08,18,08,39,17.50
2013,08,18,08,40,17.50
2013,08,18,08,41,17.50
2013,08,18,08,42,17.60
2013,08,18,08,43,17.60
2013,08,18,08,44,17.60
2013,08,18,08,45,17.60
2013,08,18,08,46,17.60
2013,08,18,08,47,17.60
2013,08,18,08,48,17.60
2013,08,18,08,49,17.60
2013,08,18,08,50,17.60
2013,08,18,08,51,17.60
2013,08,18,08,52,17.60
2013,08,18,08,53,17.60
2013,08,18,08,54,17.60
2013,08,18,08,55,17.60
2013,08,18,08,56,17.50
2013,08,18,08,57,17.50
2013,08,18,08,58,17.50
2013,08,18,08,59,17.50
2013,08,18,09,00,17.50
2013,08,18,09,01,17.50
2013,08,18,09,02,17.50
2013,08,18,09,03,17.50
2013,08,18,09,04,17.50
2013,08,18,09,05,17.50
2013,08,18,09,06,17.50
2013,08,18,09,07,17.40
2013,08,18,09,08,17.50
2013,08,18,09,09,17.50
2013,08,18,09,10,17.50
2013,08,18,09,11,17.50
2013,08,18,09,12,17.50
2013,08,18,09,13,17.50
2013,08,18,09,14,17.50
2013,08,18,09,15,17.50
2013,08,18,09,16,17.50
2013,08,18,09,17,17.50
2013,08,18,09,18,17.50
2013,08,18,09,19,17.50
2013,08,18,09,20,17.60
2013,08,18,09,21,17.60
2013,08,18,09,22,17.60
2013,08,18,09,23,17.60
2013,08,18,09,24,17.60
2013,08,18,09,25,17.60
2013,08,18,09,26,17.60
2013,08,18,09,27,17.70
2013,08,18,09,28,17.70
2013,08,18,09,29,17.70
2013,08,18,09,30,17.70
2013,08,18,09,31,17.70
2013,08,18,09,32,17.80
2013,08,18,09,33,17.80
2013,08,18,09,34,17.80
2013,08,18,09,35,17.80
2013,08,18,09,36,17.80
2013,08,18,09,37,17.80
2013,08,18,09,38,17.80
2013,08,18,09,39,17.80
2013,08,18,09,40,17.80
2013,08,18,09,41,17.80
2013,08,18,09,42,17.90
2013,08,18,09,43,17.90
2013,08,18,09,44,17.90
2013,08,18,09,45,17.90
2013,08,18,09,46,17.90
2013,08,18,09,47,18.00
2013,08,18,09,48,18.00
2013,08,18,09,49,18.00
2013,08,18,09,50,18.10
2013,08,18,09,51,18.10
2013,08,18,09,52,18.10
2013,08,18,09,53,18.20
2013,08,18,09,54,18.20
2013,08,18,09,55,18.20
2013,08,18,09,56,18.20
2013,08,18,09,57,18.20
2013,08,18,09,58,18.30
2013,08,18,09,59,18.30
2013,08,18,10,00,18.30
2013,08,18,10,01,18.30
2013,08,18,10,02,18.30
2013,08,18,10,03,18.30
2013,08,18,10,04,18.30
2013,08,18,10,05,18.30
2013,08,18,10,06,18.30
2013,08,18,10,07,18.30
2013,08,18,10,08,18.30
2013,08,18,10,09,18.30
2013,08,18,10,10,18.30
2013,08,18,10,11,18.30
2013,08,18,10,12,18.30
2013,08,18,10,13,18.30
2013,08,18,10,14,18.30
2013,08,18,10,15,18.30
2013,08,18,10,16,18.40
2013,08,18,10,17,18.40
2013,08,18,10,18,18.40
2013,08,18,10,19,18.40
2013,08,18,10,20,18.50
2013,08,18,10,21,18.50
2013,08,18,10,22,18.60
2013,08,18,10,23,18.60
2013,08,18,10,24,18.60
2013,08,18,10,25,18.60
2013,08,18,10,26,18.60
2013,08,18,10,27,18.70
2013,08,18,10,28,18.70
2013,08,18,10,29,18.70
2013,08,18,10,30,18.80
2013,08,18,10,31,18.80
2013,08,18,10,32,18.80
2013,08,18,10,33,18.80
2013,08,18,10,34,18.80
2013,08,18,10,35,18.80
2013,08,18,10,36,18.80
2013,08,18,10,37,18.80
2013,08,18,10,38,18.90
2013,08,18,10,39,18.90
2013,08,18,10,40,18.90
2013,08,18,10,41,18.90
2013,08,18,10,42,18.90
2013,08,18,10,43,18.90
2013,08,18,10,44,18.90
2013,08,18,10,45,18.90
2013,08,18,10,46,18.90
2013,08,18,10,47,18.90
2013,08,18,10,48,18.90
2013,08,18,10,49,18.90
2013,08,18,10,50,18.90
2013,08,18,10,51,18.90
2013,08,18,10,52,18.90
2013,08,18,10,53,18.90
2013,08,18,10,54,18.90
2013,08,18,10,55,18.90
2013,08,18,10,56,18.90
2013,08,18,10,57,18.90
2013,08,18,10,58,18.90
2013,08,18,10,59,18.90
2013,08,18,11,00,18.90
2013,08,18,11,01,18.90
2013,08,18,11,02,18.80
2013,08,18,11,03,18.80
2013,08,18,11,04,18.80
2013,08,18,11,05,18.80
2013,08,18,11,06,18.80
2013,08,18,11,07,18.80
2013,08,18,11,08,18.80
2013,08,18,11,09,18.80
2013,08,18,11,10,18.80
2013,08,18,11,11,18.70
2013,08,18,11,12,18.70
2013,08,18,11,13,18.70
2013,08,18,11,14,18.70
2013,08,18,11,15,18.70
2013,08,18,11,16,18.70
2013,08,18,11,17,18.70
2013,08,18,11,18,18.70
2013,08,18,11,19,18.70
2013,08,18,11,20,18.70
2013,08,18,11,21,18.70
2013,08,18,11,22,18.70
2013,08,18,11,23,18.80
2013,08,18,11,24,18.80
2013,08,18,11,25,18.80
2013,08,18,11,26,18.80
2013,08,18,11,27,18.90
2013,08,18,11,28,18.90
2013,08,18,11,29,18.90
2013,08,18,11,30,18.90
2013,08,18,11,31,18.90
2013,08,18,11,32,18.90
2013,08,18,11,33,18.90
2013,08,18,11,34,18.90
2013,08,18,11,35,18.90
2013,08,18,11,36,18.90
2013,08,18,11,37,18.90
2013,08,18,11,38,18.90
2013,08,18,11,39,19.00
2013,08,18,11,40,19.00
2013,08,18,11,41,19.00
2013,08,18,11,42,18.90
2013,08,18,11,43,18.90
2013,08,18,11,44,18.90
2013,08,18,11,45,18.90
2013,08,18,11,46,18.90
2013,08,18,11,47,18.90
2013,08,18,11,48,18.90
2013,08,18,11,49,18.90
2013,08,18,11,50,18.90
2013,08,18,11,51,18.90
2013,08,18,11,52,18.90
2013,08,18,11,53,18.90
2013,08,18,11,54,18.90
2013,08,18,11,55,19.00
2013,08,18,11,56,19.00
2013,08,18,11,57,19.10
2013,08,18,11,58,19.10
2013,08,18,11,59,19.20
2013,08,18,12,00,19.20
2013,08,18,12,01,19.20
2013,08,18,12,02,19.30
2013,08,18,12,03,19.30
2013,08,18,12,04,19.30
2013,08,18,12,05,19.30
2013,08,18,12,06,19.40
2013,08,18,12,07,19.40
2013,08,18,12,08,19.50
2013,08,18,12,09,19.60
2013,08,18,12,10,19.60
2013,08,18,12,11,19.70
2013,08,18,12,12,19.70
2013,08,18,12,13,19.80
2013,08,18,12,14,19.80
2013,08,18,12,15,19.80
2013,08,18,12,16,19.80
2013,08,18,12,17,19.90
2013,08,18,12,18,19.90
2013,08,18,12,19,19.90
2013,08,18,12,20,19.90
2013,08,18,12,21,20.00
2013,08,18,12,22,20.00
2013,08,18,12,23,20.00
2013,08,18,12,24,20.00
2013,08,18,12,25,20.00
2013,08,18,12,26,20.10
2013,08,18,12,27,20.10
2013,08,18,12,28,20.10
2013,08,18,12,29,20.00
2013,08,18,12,30,20.00
2013,08,18,12,31,20.00
2013,08,18,12,32,20.00
2013,08,18,12,33,19.90
2013,08,18,12,34,19.90
2013,08,18,12,35,19.80
2013,08,18,12,36,19.80
2013,08,18,12,37,19.70
2013,08,18,12,38,19.70
2013,08,18,12,39,19.70
2013,08,18,12,40,19.60
2013,08,18,12,41,19.60
2013,08,18,12,42,19.60
2013,08,18,12,43,19.60
2013,08,18,12,44,19.50
2013,08,18,12,45,19.50
2013,08,18,12,46,19.50
2013,08,18,12,47,19.50
2013,08,18,12,48,19.50
2013,08,18,12,49,19.50
2013,08,18,12,50,19.50
2013,08,18,12,51,19.50
2013,08,18,12,52,19.50
2013,08,18,12,53,19.50
2013,08,18,12,54,19.40
2013,08,18,12,55,19.40
2013,08,18,12,56,19.50
2013,08,18,12,57,19.50
2013,08,18,12,58,19.50
2013,08,18,12,59,19.60
2013,08,18,13,00,19.60
2013,08,18,13,01,19.60
2013,08,18,13,02,19.60
2013,08,18,13,03,19.60
2013,08,18,13,04,19.60
2013,08,18,13,05,19.60
2013,08,18,13,06,19.60
2013,08,18,13,07,19.60
2013,08,18,13,08,19.60
2013,08,18,13,09,19.60
2013,08,18,13,10,19.60
2013,08,18,13,11,19.60
2013,08,18,13,12,19.60
2013,08,18,13,13,19.60
2013,08,18,13,14,19.60
2013,08,18,13,15,19.60
2013,08,18,13,16,19.60
2013,08,18,13,17,19.60
2013,08,18,13,18,19.60
2013,08,18,13,19,19.70
2013,08,18,13,20,19.70
2013,08,18,13,21,19.70
2013,08,18,13,22,19.70
2013,08,18,13,23,19.70
2013,08,18,13,24,19.70
2013,08,18,13,25,19.70
2013,08,18,13,26,19.70
2013,08,18,13,27,19.70
2013,08,18,13,28,19.70
2013,08,18,13,29,19.70
2013,08,18,13,30,19.80
2013,08,18,13,31,19.80
2013,08,18,13,32,19.80
2013,08,18,13,33,19.80
2013,08,18,13,34,19.80
2013,08,18,13,35,19.80
2013,08,18,13,36,19.80
2013,08,18,13,37,19.70
2013,08,18,13,38,19.70
2013,08,18,13,39,19.70
2013,08,18,13,40,19.70
2013,08,18,13,41,19.60
2013,08,18,13,42,19.60
2013,08,18,13,43,19.60
2013,08,18,13,44,19.60
2013,08,18,13,45,19.60
2013,08,18,13,46,19.60
2013,08,18,13,47,19.60
2013,08,18,13,48,19.60
2013,08,18,13,49,19.60
2013,08,18,13,50,19.70
2013,08,18,13,51,19.70
2013,08,18,13,52,19.70
2013,08,18,13,53,19.70
2013,08,18,13,54,19.70
2013,08,18,13,55,19.70
2013,08,18,13,56,19.70
2013,08,18,13,57,19.70
2013,08,18,13,58,19.70
2013,08,18,13,59,19.70
2013,08,18,14,00,19.70
2013,08,18,14,01,19.70
2013,08,18,14,02,19.70
2013,08,18,14,03,19.80
2013,08,18,14,04,19.80
2013,08,18,14,05,19.80
2013,08,18,14,06,19.80
2013,08,18,14,07,19.80
2013,08,18,14,08,19.80
2013,08,18,14,09,19.80
2013,08,18,14,10,19.80
2013,08,18,14,11,19.80
2013,08,18,14,12,19.80
2013,08,18,14,13,19.80
2013,08,18,14,14,19.80
2013,08,18,14,15,19.80
2013,08,18,14,16,19.80
2013,08,18,14,17,19.80
2013,08,18,14,18,19.80
2013,08,18,14,19,19.80
2013,08,18,14,20,19.80
2013,08,18,14,21,19.80
2013,08,18,14,22,19.80
2013,08,18,14,23,19.80
2013,08,18,14,24,19.80
2013,08,18,14,25,19.80
2013,08,18,14,26,19.80
2013,08,18,14,27,19.80
2013,08,18,14,28,19.80
2013,08,18,14,29,19.80
2013,08,18,14,30,19.80
2013,08,18,14,31,19.80
2013,08,18,14,32,19.80
2013,08,18,14,33,19.80
2013,08,18,14,34,19.90
2013,08,18,14,35,19.90
2013,08,18,14,36,19.90
2013,08,18,14,37,19.90
2013,08,18,14,38,20.00
2013,08,18,14,39,20.00
2013,08,18,14,40,20.00
2013,08,18,14,41,20.00
2013,08,18,14,42,20.10
2013,08,18,14,43,20.10
2013,08,18,14,44,20.10
2013,08,18,14,45,20.20
2013,08,18,14,46,20.20
2013,08,18,14,47,20.20
2013,08,18,14,48,20.20
2013,08,18,14,49,20.30
2013,08,18,14,50,20.30
2013,08,18,14,51,20.30
2013,08,18,14,52,20.40
2013,08,18,14,53,20.40
2013,08,18,14,54,20.40
2013,08,18,14,55,20.50
2013,08,18,14,56,20.50
2013,08,18,14,57,20.50
2013,08,18,14,58,20.60
2013,08,18,14,59,20.60
2013,08,18,15,00,20.60
2013,08,18,15,01,20.60
2013,08,18,15,02,20.60
2013,08,18,15,03,20.70
2013,08,18,15,04,20.70
2013,08,18,15,05,20.70
2013,08,18,15,06,20.70
2013,08,18,15,07,20.80
2013,08,18,15,08,20.80
2013,08,18,15,09,20.80
2013,08,18,15,10,20.80
2013,08,18,15,11,20.90
2013,08,18,15,12,20.90
2013,08,18,15,13,21.00
2013,08,18,15,14,21.00
2013,08,18,15,15,20.90
2013,08,18,15,16,20.90
2013,08,18,15,17,20.90
2013,08,18,15,18,20.90
2013,08,18,15,19,20.80
2013,08,18,15,20,20.80
2013,08,18,15,21,20.90
2013,08,18,15,22,20.90
2013,08,18,15,23,21.00
2013,08,18,15,24,21.10
2013,08,18,15,25,21.10
2013,08,18,15,26,21.10
2013,08,18,15,27,21.10
2013,08,18,15,28,21.20
2013,08,18,15,29,21.20
2013,08,18,15,30,21.30
2013,08,18,15,31,21.30
2013,08,18,15,32,21.30
2013,08,18,15,33,21.40
2013,08,18,15,34,21.40
2013,08,18,15,35,21.40
2013,08,18,15,36,21.40
2013,08,18,15,37,21.30
2013,08,18,15,38,21.40
2013,08,18,15,39,21.40
2013,08,18,15,40,21.40
2013,08,18,15,41,21.50
2013,08,18,15,42,21.50
2013,08,18,15,43,21.60
2013,08,18,15,44,21.60
2013,08,18,15,45,21.50
2013,08,18,15,46,21.50
2013,08,18,15,47,21.50
2013,08,18,15,48,21.60
2013,08,18,15,49,21.60
2013,08,18,15,50,21.70
2013,08,18,15,51,21.80
2013,08,18,15,52,21.80
2013,08,18,15,53,21.90
2013,08,18,15,54,22.00
2013,08,18,15,55,22.10
2013,08,18,15,56,22.10
2013,08,18,15,57,22.10
2013,08,18,15,58,22.10
2013,08,18,15,59,22.10
2013,08,18,16,00,22.10
2013,08,18,16,01,22.10
2013,08,18,16,02,22.10
2013,08,18,16,03,22.10
2013,08,18,16,04,22.00
2013,08,18,16,05,21.90
2013,08,18,16,06,21.90
2013,08,18,16,07,21.90
2013,08,18,16,08,21.90
2013,08,18,16,09,22.00
2013,08,18,16,10,22.10
2013,08,18,16,11,22.10
2013,08,18,16,12,22.20
2013,08,18,16,13,22.20
2013,08,18,16,14,22.20
2013,08,18,16,15,22.20
2013,08,18,16,16,22.30
2013,08,18,16,17,22.30
2013,08,18,16,18,22.30
2013,08,18,16,19,22.40
2013,08,18,16,20,22.40
2013,08,18,16,21,22.50
2013,08,18,16,22,22.60
2013,08,18,16,23,22.60
2013,08,18,16,24,22.60
2013,08,18,16,25,22.60
2013,08,18,16,26,22.60
2013,08,18,16,27,22.70
2013,08,18,16,28,22.70
2013,08,18,16,29,22.70
2013,08,18,16,30,22.80
2013,08,18,16,31,22.80
2013,08,18,16,32,22.80
2013,08,18,16,33,22.80
2013,08,18,16,34,22.80
2013,08,18,16,35,22.80
2013,08,18,16,36,22.80
2013,08,18,16,37,22.80
2013,08,18,16,38,22.80
2013,08,18,16,39,22.70
2013,08,18,16,40,22.70
2013,08,18,16,41,22.80
2013,08,18,16,42,22.80
2013,08,18,16,43,22.80
2013,08,18,16,44,22.80
2013,08,18,16,45,22.80
2013,08,18,16,46,22.80
2013,08,18,16,47,22.90
2013,08,18,16,48,22.90
2013,08,18,16,49,23.00
2013,08,18,16,50,23.00
2013,08,18,16,51,23.00
2013,08,18,16,52,23.00
2013,08,18,16,53,23.10
2013,08,18,16,54,23.00
2013,08,18,16,55,23.00
2013,08,18,16,56,22.90
2013,08,18,16,57,22.80
2013,08,18,16,58,22.80
2013,08,18,16,59,22.70
2013,08,18,17,00,22.60
2013,08,18,17,01,22.60
2013,08,18,17,02,22.50
2013,08,18,17,03,22.40
2013,08,18,17,04,22.40
2013,08,18,17,05,22.40
2013,08,18,17,06,22.30
2013,08,18,17,07,22.30
2013,08,18,17,08,22.30
2013,08,18,17,09,22.30
2013,08,18,17,10,22.30
2013,08,18,17,11,22.30
2013,08,18,17,12,22.30
2013,08,18,17,13,22.30
2013,08,18,17,14,22.30
2013,08,18,17,15,22.30
2013,08,18,17,16,22.30
2013,08,18,17,17,22.20
2013,08,18,17,18,22.20
2013,08,18,17,19,22.20
2013,08,18,17,20,22.20
2013,08,18,17,21,22.20
2013,08,18,17,22,22.20